{"data":{"norad_id":51892,"intl_designator":"2022-022AS","name":"STARLINK-3587","alt_names":[],"object_type":"PAYLOAD","status":"ACTIVE","operator":null,"country":"US","launch_date":"2022-03-03","launch_site_code":"AFETR","launch_vehicle":null,"mission":null,"orbit_class":"UNKNOWN","rcs_meters":null,"size_class":null,"mass_kg":null,"dimensions":null,"purposes":["comms"],"wikipedia_slug":null,"has_3d_model":false,"image_url":null,"decayed_at":null,"tle_current":{"epoch":"2026-05-25T01:26:28.084128Z","epoch_age_seconds":70634,"freshness":"FRESH","line1":"1 51892U 22022AS  26145.06004727 -.00000031  00000+0  16122-4 0  9997","line2":"2 51892  53.2151  16.2807 0001668  93.4585 266.6598 15.08835891234776","mean_motion":15.08835891,"eccentricity":0.0001668,"inclination_deg":53.2151,"raan_deg":16.2807,"arg_perigee_deg":93.4585,"mean_anomaly_deg":266.6598,"bstar":1.6122e-5,"rev_number":23477,"period_min":95.43781458205,"perigee_km":538.60204401796,"apogee_km":540.9098531056,"semimajor_km":6917.8929485618,"source":"CELESTRAK","updated_at":"2026-05-25T13:38:16.988873Z"}}}